STARLINK-32594 (62302 NORAD) Tracking and Keplerian Element Data

This shows tracking and keplerian element data for the satellite.

Feedback or suggestion? Click here.




ElementValue
Catalog62302
NameSTARLINK-32594
Epoch Orbit607
Epoch Day34.83335648
Epoch Year2025
RAAN244.3623
Inclination53.159
Eccentricity7.92E-05
Argument of Perigee92.736
Mean Anonmoly0.7293
Mean Motion15.30161509
Decay Rate-8.401E-05
L11 62302U 24239B 25034.83335648 -.00008401 00000+0 -27216-3 0 9992
L22 62302 53.1590 244.3623 0000792 92.7360 0.7293 15.30161509 6072



Live tracking and technical data element details for STARLINK-32594 (NORAD 62302). STARLINK-32594 can be tracked NOW for your location showing map with azimuth and elevation plus other details from your city location.







IsCatalogInMostPopularTable: catalog: 62302, numindb: 15
Update: records affected: 1



GetName: 62302 STARLINK-32594

Hit Count: updated at: Sat, 24 May 2025 17:01:53 GMT